EW3608 Weather Reports


time (UTC)temp
F
wind
direction
speed
knots
gust
knots
rain 1hr
in
rain 24hr
in
rain mn
in
humidity
%
barometer
mb
20260509235510 74 46 2.6 8.7 0.00 0.00 0.00 23 1013.4
20260509235006 74 47 3.5 8.7 0.00 0.00 0.00 23 1013.3
20260509234514 74 100 3.5 8.7 0.00 0.00 0.00 23 1013.3
20260509234006 75 84 1.7 7.8 0.00 0.00 0.00 23 1013.3
20260509233509 75 89 3.5 7.8 0.00 0.00 0.00 22 1013.2
20260509233006 75 72 1.7 4.3 0.00 0.00 0.00 21 1013.1
20260509232504 75 113 2.6 7.8 0.00 0.00 0.00 22 1013.0
20260509232007 75 129 2.6 9.6 0.00 0.00 0.00 24 1012.8
20260509231514 75 40 3.5 9.6 0.00 0.00 0.00 22 1012.8
20260509231006 75 38 3.5 10.4 0.00 0.00 0.00 23 1012.7
20260509230506 75 51 3.5 10.4 0.00 0.00 0.00 24 1012.7
20260509230015 75 86 4.3 10.4 0.00 0.00 0.00 23 1012.5
20260509225506 75 61 1.7 9.6 0.00 0.00 0.00 24 1012.5
20260509225004 75 39 3.5 9.6 0.00 0.00 0.00 23 1012.6
20260509224512 75 60 4.3 9.6 0.00 0.00 0.00 22 1012.6
20260509224007 75 78 2.6 9.6 0.00 0.00 0.00 23 1012.5
20260509223507 75 42 4.3 9.6 0.00 0.00 0.00 23 1012.4
20260509223015 74 53 2.6 10.4 0.00 0.00 0.00 22 1012.3
20260509222507 74 44 0.9 10.4 0.00 0.00 0.00 23 1012.2
20260509222003 74 83 5.2 12.2 0.00 0.00 0.00 21 1012.2
20260509221518 74 344 5.2 11.3 0.00 0.00 0.00 21 1012.2
20260509221004 75 123 4.3 13.9 0.00 0.00 0.00 20 1012.2
20260509220504 75 49 6.1 13.9 0.00 0.00 0.00 20 1012.1
20260509220015 76 106 4.3 10.4 0.00 0.00 0.00 21 1012.2
20260509215505 75 346 4.3 10.4 0.00 0.00 0.00 20 1012.2
20260509215010 75 108 5.2 9.6 0.00 0.00 0.00 21 1012.2
20260509214521 74 80 1.7 12.2 0.00 0.00 0.00 21 1012.2
20260509214009 75 32 5.2 14.8 0.00 0.00 0.00 22 1012.2
20260509213504 75 51 4.3 14.8 0.00 0.00 0.00 22 1012.2
20260509213010 76 121 4.3 14.8 0.00 0.00 0.00 20 1012.3
20260509212504 75 32 1.7 9.6 0.00 0.00 0.00 21 1012.3
20260509212007 75 352 2.6 13.0 0.00 0.00 0.00 21 1012.3
20260509211518 75 66 7.0 13.0 0.00 0.00 0.00 21 1012.4
20260509211008 76 61 4.3 11.3 0.00 0.00 0.00 21 1012.6
20260509210507 76 86 5.2 11.3 0.00 0.00 0.00 21 1012.7
20260509210018 75 346 3.5 13.0 0.00 0.00 0.00 20 1012.6
20260509205506 75 44 5.2 13.0 0.00 0.00 0.00 21 1012.5
20260509205003 75 67 6.1 12.2 0.00 0.00 0.00 21 1012.6
20260509204523 76 19 3.5 7.8 0.00 0.00 0.00 21 1012.7
20260509204007 75 58 1.7 9.6 0.00 0.00 0.00 20 1012.7
20260509203509 75 59 4.3 10.4 0.00 0.00 0.00 22 1012.6
20260509203015 75 26 4.3 10.4 0.00 0.00 0.00 21 1012.8
20260509202506 76 288 4.3 11.3 0.00 0.00 0.00 20 1012.9
20260509202007 76 44 4.3 11.3 0.00 0.00 0.00 20 1012.9
20260509201506 76 72 4.3 11.3 0.00 0.00 0.00 21 1013.1
20260509201006 77 58 2.6 6.1 0.00 0.00 0.00 20 1013.2
20260509200504 76 352 1.7 5.2 0.00 0.00 0.00 21 1013.3
20260509200016 75 143 1.7 9.6 0.00 0.00 0.00 22 1013.3
20260509195508 75 119 5.2 9.6 0.00 0.00 0.00 21 1013.3
20260509195009 75 63 3.5 9.6 0.00 0.00 0.00 20 1013.3
20260509194521 75 24 3.5 7.0 0.00 0.00 0.00 21 1013.3
20260509194005 75 32 2.6 9.6 0.00 0.00 0.00 21 1013.4
20260509193503 76 69 4.3 9.6 0.00 0.00 0.00 20 1013.4
20260509193010 75 11 1.7 9.6 0.00 0.00 0.00 22 1013.3
20260509192506 75 93 1.7 8.7 0.00 0.00 0.00 23 1013.3
20260509192008 75 82 3.5 8.7 0.00 0.00 0.00 21 1013.4
20260509191525 75 80 3.5 8.7 0.00 0.00 0.00 21 1013.4
20260509191008 76 35 4.3 7.0 0.00 0.00 0.00 20 1013.5
20260509190507 75 343 1.7 9.6 0.00 0.00 0.00 21 1013.5
20260509190020 74 352 1.7 9.6 0.00 0.00 0.00 23 1013.4
20260509185506 74 55 3.5 11.3 0.00 0.00 0.00 22 1013.5
20260509185007 74 50 6.1 11.3 0.00 0.00 0.00 21 1013.6
20260509184522 75 76 3.5 8.7 0.00 0.00 0.00 24 1013.7
20260509184007 75 5 4.3 8.7 0.00 0.00 0.00 21 1013.7
20260509183510 75 74 1.7 7.8 0.00 0.00 0.00 22 1013.8
20260509183020 74 86 3.5 7.8 0.00 0.00 0.00 23 1013.8
20260509182507 74 88 3.5 7.0 0.00 0.00 0.00 21 1013.8
20260509182010 74 88 1.7 7.8 0.00 0.00 0.00 21 1013.7
20260509181512 74 41 3.5 9.6 0.00 0.00 0.00 21 1013.8
20260509181004 74 336 2.6 8.7 0.00 0.00 0.00 22 1013.8
20260509180507 74 334 3.5 7.8 0.00 0.00 0.00 20 1013.9
20260509180021 74 136 1.7 10.4 0.00 0.00 0.00 21 1013.9
20260509175506 74 98 2.6 10.4 0.00 0.00 0.00 19 1013.9
20260509175011 74 140 3.5 12.2 0.00 0.00 0.00 22 1013.8
20260509174522 74 360 3.5 12.2 0.00 0.00 0.00 22 1013.8
20260509174008 74 134 1.7 5.2 0.00 0.00 0.00 18 1013.7
20260509173506 74 138 0.9 6.1 0.00 0.00 0.00 16 1013.8
20260509173014 74 47 0.9 8.7 0.00 0.00 0.00 18 1013.9
20260509172510 74 51 2.6 8.7 0.00 0.00 0.00 18 1013.8
20260509172010 75 15 0.9 9.6 0.00 0.00 0.00 18 1013.7
20260509171523 74 73 2.6 9.6 0.00 0.00 0.00 18 1013.7
20260509171006 74 40 1.7 7.0 0.00 0.00 0.00 17 1013.6
20260509170510 74 77 2.6 6.1 0.00 0.00 0.00 18 1013.7
20260509170020 74 70 1.7 6.1 0.00 0.00 0.00 18 1013.7
20260509165503 73 37 3.5 6.1 0.00 0.00 0.00 17 1013.8
20260509165006 73 59 1.7 5.2 0.00 0.00 0.00 18 1013.7
20260509164521 73 57 2.6 7.8 0.00 0.00 0.00 18 1013.8
20260509164008 73 23 2.6 7.0 0.00 0.00 0.00 18 1013.7
20260509163506 73 71 2.6 7.0 0.00 0.00 0.00 18 1013.8
20260509163025 72 12 2.6 8.7 0.00 0.00 0.00 19 1013.8
20260509162508 72 76 3.5 11.3 0.00 0.00 0.00 21 1013.8
20260509162013 72 65 4.3 11.3 0.00 0.00 0.00 22 1013.8
20260509161515 72 65 4.3 10.4 0.00 0.00 0.00 19 1013.6
20260509161010 72 64 2.6 7.8 0.00 0.00 0.00 19 1013.6
20260509160509 72 90 2.6 8.7 0.00 0.00 0.00 22 1013.5
20260509160029 71 46 2.6 8.7 0.00 0.00 0.00 22 1013.4
20260509155509 71 150 1.7 12.2 0.00 0.00 0.00 23 1013.4
20260509155007 71 92 3.5 12.2 0.00 0.00 0.00 23 1013.3
20260509154524 71 60 2.6 7.8 0.00 0.00 0.00 25 1013.3
20260509154009 71 9 1.7 7.0 0.00 0.00 0.00 25 1013.4
20260509153509 71 296 1.7 6.1 0.00 0.00 0.00 25 1013.5
20260509153031 71 352 1.7 6.1 0.00 0.00 0.00 19 1013.5
20260509152507 71 352 1.7 5.2 0.00 0.00 0.00 19 1013.6
20260509152004 70 302 1.7 3.5 0.00 0.00 0.00 19 1013.6
20260509151504 69 290 0.9 2.6 0.00 0.00 0.00 24 1013.6
20260509151003 68 336 0.0 1.7 0.00 0.00 0.00 27 1013.8
20260509150504 68 253 0.9 1.7 0.00 0.00 0.00 26 1013.7
20260509150019 68 9 0.9 5.2 0.00 0.00 0.00 28 1013.8
20260509145502 67 62 0.9 5.2 0.00 0.00 0.00 28 1013.9
20260509145003 67 5 0.9 3.5 0.00 0.00 0.00 26 1013.9
20260509144512 66 248 0.9 3.5 0.00 0.00 0.00 27 1013.8
20260509144008 65 5 0.0 2.6 0.00 0.00 0.00 27 1013.7
20260509143503 64 360 0.9 3.5 0.00 0.00 0.00 28 1013.7
20260509143008 63 24 1.7 3.5 0.00 0.00 0.00 30 1013.7
20260509142508 61 276 0.0 2.6 0.00 0.00 0.00 34 1013.8
20260509142008 60 254 0.0 2.6 0.00 0.00 0.00 36 1013.9
20260509141503 59 271 0.0 1.7 0.00 0.00 0.00 37 1013.9
20260509141003 58 242 0.9 1.7 0.00 0.00 0.00 37 1014.0
20260509140503 58 270 0.0 1.7 0.00 0.00 0.00 37 1014.0
20260509140003 59 254 0.0 1.7 0.00 0.00 0.00 38 1014.1
20260509135504 58 252 0.0 1.7 0.00 0.00 0.00 36 1014.0
20260509135003 58 313 0.0 1.7 0.00 0.00 0.00 36 1014.0
20260509134527 57 300 0.0 1.7 0.00 0.00 0.00 37 1014.0
20260509134007 56 302 0.0 1.7 0.00 0.00 0.00 39 1014.0
20260509133504 56 311 0.0 2.6 0.00 0.00 0.00 40 1013.9
20260509133010 56 232 0.9 2.6 0.00 0.00 0.00 41 1013.8
20260509132503 55 253 0.0 5.2 0.00 0.00 0.00 40 1013.9
20260509132003 54 245 1.7 5.2 0.00 0.00 0.00 42 1013.8
20260509131511 52 259 0.9 3.5 0.00 0.00 0.00 48 1013.7
20260509131004 52 245 0.0 1.7 0.00 0.00 0.00 51 1013.6
20260509130504 52 210 0.0 1.7 0.00 0.00 0.00 53 1013.7
20260509130016 51 213 0.0 2.6 0.00 0.00 0.00 53 1013.6
20260509125502 50 227 0.9 3.5 0.00 0.00 0.00 54 1013.6
20260509125002 50 240 0.9 3.5 0.00 0.00 0.00 54 1013.5
20260509124506 49 227 0.0 1.7 0.00 0.00 0.00 59 1013.4
20260509124004 49 210 0.9 1.7 0.00 0.00 0.00 60 1013.3
20260509123504 48 241 0.9 2.6 0.00 0.00 0.00 60 1013.2
20260509123009 48 241 0.9 2.6 0.00 0.00 0.00 62 1013.1
20260509122508 47 237 0.9 2.6 0.00 0.00 0.00 65 1013.1
20260509122015 47 238 0.9 1.7 0.00 0.00 0.00 64 1012.9
20260509121512 47 313 0.9 2.6 0.00 0.00 0.00 67 1013.0
20260509121005 46 247 0.0 2.6 0.00 0.00 0.00 67 1012.9
20260509120504 46 186 0.9 2.6 0.00 0.00 0.00 68 1012.8
20260509120007 46 215 0.0 1.7 0.00 0.00 0.00 67 1012.7
20260509115504 46 238 0.0 2.6 0.00 0.00 0.00 67 1012.7
20260509115007 46 352 0.0 2.6 0.00 0.00 0.00 68 1012.9
20260509114528 46 231 0.0 1.7 0.00 0.00 0.00 66 1012.8
20260509114007 46 221 0.0 1.7 0.00 0.00 0.00 66 1012.7
20260509113503 46 224 0.9 1.7 0.00 0.00 0.00 66 1012.7
20260509113003 47 221 0.9 1.7 0.00 0.00 0.00 67 1012.7
20260509112503 47 191 0.9 1.7 0.00 0.00 0.00 63 1012.7
20260509112009 47 223 0.0 1.7 0.00 0.00 0.00 69 1012.7
20260509111509 46 224 0.0 1.7 0.00 0.00 0.00 65 1012.7
20260509111003 46 221 0.0 1.7 0.00 0.00 0.00 66 1012.6
20260509110507 47 198 0.0 1.7 0.00 0.00 0.00 67 1012.6
20260509110020 47 184 0.0 1.7 0.00 0.00 0.00 67 1012.4
20260509105509 47 184 0.0 1.7 0.00 0.00 0.00 63 1012.6
20260509105003 47 184 0.0 1.7 0.00 0.00 0.00 65 1012.5
20260509104502 47 184 0.0 1.7 0.00 0.00 0.00 64 1012.4
20260509104003 47 218 0.0 1.7 0.00 0.00 0.00 63 1012.4
20260509103503 47 215 0.0 1.7 0.00 0.00 0.00 65 1012.2
20260509103014 47 212 0.0 1.7 0.00 0.00 0.00 65 1012.1
20260509102507 47 185 0.0 1.7 0.00 0.00 0.00 65 1012.1
20260509102010 47 207 0.0 0.9 0.00 0.00 0.00 69 1012.1
20260509101532 47 220 0.9 1.7 0.00 0.00 0.00 68 1012.1
20260509101003 47 205 0.0 1.7 0.00 0.00 0.00 71 1012.2
20260509100502 47 200 0.0 1.7 0.00 0.00 0.00 70 1012.2
20260509100008 47 200 0.0 1.7 0.00 0.00 0.00 67 1012.1
20260509095506 47 206 0.0 1.7 0.00 0.00 0.00 68 1012.2
20260509095009 47 217 0.0 1.7 0.00 0.00 0.00 70 1012.2
20260509094527 47 271 0.0 1.7 0.00 0.00 0.00 67 1012.2
20260509094008 46 328 0.0 2.6 0.00 0.00 0.00 73 1012.2
20260509093509 46 348 0.0 2.6 0.00 0.00 0.00 74 1012.2
20260509093002 46 220 0.9 1.7 0.00 0.00 0.00 75 1012.2
20260509092505 46 315 0.0 2.6 0.00 0.00 0.00 75 1012.2
20260509090024 47 187 0.0 1.7 0.00 0.00 0.00 74 1011.9
20260509085509 47 45 0.0 1.7 0.00 0.00 0.00 74 1011.9
20260509085003 47 173 0.0 1.7 0.00 0.00 0.00 74 1011.8
20260509084506 47 169 0.0 1.7 0.00 0.00 0.00 75 1011.7
20260509084006 47 193 0.9 1.7 0.00 0.00 0.00 75 1011.7
20260509083506 47 223 0.9 2.6 0.00 0.00 0.00 72 1011.6
20260509083017 47 185 0.9 2.6 0.00 0.00 0.00 75 1011.7
20260509082507 46 194 0.9 1.7 0.00 0.00 0.00 78 1011.6
20260509082012 46 191 0.9 1.7 0.00 0.00 0.00 79 1011.8
20260509081528 47 195 0.9 1.7 0.00 0.00 0.00 78 1011.9
20260509081005 47 133 0.0 1.7 0.00 0.00 0.00 78 1012.0
20260509080503 47 133 0.0 1.7 0.00 0.00 0.00 78 1012.1
20260509080010 47 133 0.0 1.7 0.00 0.00 0.00 77 1012.0
20260509075506 47 133 0.0 1.7 0.00 0.00 0.00 77 1012.1
20260509075007 48 133 0.0 1.7 0.00 0.00 0.00 77 1012.1
20260509074531 48 192 0.0 1.7 0.00 0.00 0.00 77 1012.2
20260509074006 48 192 0.0 1.7 0.00 0.00 0.00 76 1012.3
20260509073511 48 189 0.0 1.7 0.00 0.00 0.00 76 1012.4
20260509073005 48 196 0.9 1.7 0.00 0.00 0.00 76 1012.5
20260509072504 48 223 0.0 1.7 0.00 0.00 0.00 77 1012.6
20260509072006 48 169 0.0 1.7 0.00 0.00 0.00 75 1012.7
20260509071512 48 169 0.0 1.7 0.00 0.00 0.00 75 1012.7
20260509071007 48 169 0.0 1.7 0.00 0.00 0.00 77 1012.8
20260509070509 48 169 0.0 1.7 0.00 0.00 0.00 77 1012.9
20260509070026 48 187 0.0 1.7 0.00 0.00 0.00 77 1012.9
20260509065506 49 196 0.0 1.7 0.00 0.00 0.00 76 1012.9
20260509065003 49 196 0.0 1.7 0.00 0.00 0.00 76 1012.9
20260509064508 49 196 0.0 1.7 0.00 0.00 0.00 76 1012.9
20260509064006 49 215 0.0 1.7 0.00 0.00 0.00 75 1013.0
20260509063507 49 218 0.0 1.7 0.00 0.00 0.00 74 1012.9
20260509063025 50 225 0.0 1.7 0.00 0.00 0.00 73 1012.9
20260509062508 50 225 0.0 1.7 0.00 0.00 0.00 74 1013.0
20260509062017 50 225 0.0 1.7 0.00 0.00 0.00 73 1012.9
20260509061528 50 247 0.0 1.7 0.00 0.00 0.00 73 1013.0
20260509061005 50 247 0.0 1.7 0.00 0.00 0.00 71 1013.0
20260509060502 51 246 0.0 1.7 0.00 0.00 0.00 71 1013.0
20260509060017 51 190 0.0 1.7 0.00 0.00 0.00 71 1013.1
20260509055503 51 163 0.0 1.7 0.00 0.00 0.00 69 1013.0
20260509055006 52 233 0.0 1.7 0.00 0.00 0.00 68 1013.1
20260509054527 52 227 0.0 1.7 0.00 0.00 0.00 67 1013.1
20260509054008 53 227 0.0 1.7 0.00 0.00 0.00 66 1013.1
20260509053510 53 220 0.0 1.7 0.00 0.00 0.00 66 1013.2
20260509053029 53 220 0.0 1.7 0.00 0.00 0.00 66 1013.3
20260509052502 54 220 0.0 1.7 0.00 0.00 0.00 64 1013.4
20260509052003 54 206 0.0 1.7 0.00 0.00 0.00 64 1013.3
20260509051512 54 248 0.0 1.7 0.00 0.00 0.00 62 1013.5
20260509051008 54 218 0.9 1.7 0.00 0.00 0.00 62 1013.5
20260509050507 54 184 0.0 1.7 0.00 0.00 0.00 66 1013.6
20260509050022 54 158 0.0 1.7 0.00 0.00 0.00 64 1013.7
20260509045513 54 240 0.9 1.7 0.00 0.00 0.00 66 1013.8
20260509045011 54 98 0.0 1.7 0.00 0.00 0.00 65 1013.8
20260509044506 54 42 0.0 1.7 0.00 0.00 0.00 65 1013.9
20260509044010 54 90 0.0 1.7 0.00 0.00 0.00 65 1013.9
20260509043509 54 234 0.0 1.7 0.00 0.00 0.00 65 1014.0
20260509043018 55 234 0.0 1.7 0.00 0.00 0.00 65 1014.0
20260509042509 55 234 0.9 1.7 0.00 0.00 0.00 61 1014.1
20260509042014 55 242 0.0 1.7 0.00 0.00 0.00 63 1014.2
20260509041544 55 242 0.0 0.0 0.00 0.00 0.00 63 1014.2
20260509041009 55 242 0.0 0.0 0.00 0.00 0.00 61 1014.3
20260509040506 56 242 0.0 0.0 0.00 0.00 0.00 61 1014.3
20260509040012 56 242 0.0 1.7 0.00 0.00 0.00 61 1014.4
20260509035507 56 242 0.0 1.7 0.00 0.00 0.00 61 1014.5
20260509035005 56 248 0.0 1.7 0.00 0.00 0.00 61 1014.5
20260509034522 56 220 0.0 1.7 0.00 0.00 0.00 61 1014.5
20260509034007 56 201 0.0 1.7 0.00 0.00 0.00 60 1014.5
20260509033511 57 202 0.0 1.7 0.00 0.00 0.00 60 1014.5
20260509033028 57 202 0.0 1.7 0.00 0.00 0.00 60 1014.5
20260509032504 57 207 0.0 0.9 0.00 0.00 0.00 59 1014.5
20260509032003 57 207 0.0 1.7 0.00 0.00 0.00 58 1014.5
20260509031515 58 207 0.0 1.7 0.00 0.00 0.00 57 1014.5
20260509031007 58 207 0.0 1.7 0.00 0.00 0.00 56 1014.5
20260509030511 59 209 0.0 1.7 0.00 0.00 0.00 55 1014.5
20260509030028 59 209 0.0 1.7 0.00 0.00 0.00 54 1014.4
20260509025510 60 190 0.0 1.7 0.00 0.00 0.00 52 1014.3
20260509025012 60 190 0.0 1.7 0.00 0.00 0.00 51 1014.2
20260509024511 60 191 0.0 1.7 0.00 0.00 0.00 49 1014.2
20260509024007 60 190 0.9 1.7 0.00 0.00 0.00 50 1014.1
20260509023508 61 128 0.0 1.7 0.00 0.00 0.00 49 1014.0
20260509023026 61 190 0.0 1.7 0.00 0.00 0.00 48 1013.9
20260509022508 62 187 0.9 1.7 0.00 0.00 0.00 47 1013.8
20260509022013 62 155 0.0 1.7 0.00 0.00 0.00 47 1013.8
20260509021533 63 155 0.0 1.7 0.00 0.00 0.00 46 1013.8
20260509021009 63 103 0.0 1.7 0.00 0.00 0.00 46 1013.7
20260509020508 64 103 0.0 1.7 0.00 0.00 0.00 44 1013.6
20260509020024 64 103 0.0 1.7 0.00 0.00 0.00 44 1013.6
20260509015505 65 103 0.0 1.7 0.00 0.00 0.00 42 1013.5
20260509015010 65 84 0.0 1.7 0.00 0.00 0.00 41 1013.5
20260509014522 65 82 0.0 1.7 0.00 0.00 0.00 42 1013.5
20260509014008 66 82 0.0 1.7 0.00 0.00 0.00 42 1013.5
20260509013513 66 92 0.0 1.7 0.00 0.00 0.00 41 1013.5
20260509013037 66 71 0.0 1.7 0.00 0.00 0.00 40 1013.5
20260509012506 67 110 0.0 2.6 0.00 0.00 0.00 41 1013.5
20260509012007 67 101 0.9 2.6 0.00 0.00 0.00 39 1013.5
20260509011520 67 102 0.0 3.5 0.00 0.00 0.00 39 1013.5
20260509011007 68 105 1.7 3.5 0.00 0.00 0.00 38 1013.4
20260509010515 68 113 0.9 2.6 0.00 0.00 0.00 37 1013.3
20260509010028 69 130 0.0 2.6 0.00 0.00 0.00 37 1013.3
20260509005509 69 78 0.9 2.6 0.00 0.00 0.00 36 1013.3
20260509005010 69 205 0.0 2.6 0.00 0.00 0.00 36 1013.3
20260509004517 69 150 0.9 2.6 0.00 0.00 0.00 36 1013.3
20260509004007 69 155 0.0 3.5 0.00 0.00 0.00 36 1013.4
20260509003509 69 166 0.0 3.5 0.00 0.00 0.00 36 1013.3
20260509003024 69 100 0.9 3.5 0.00 0.00 0.00 37 1013.3
20260509002513 70 115 0.9 3.5 0.00 0.00 0.00 36 1013.3
20260509002010 70 92 0.9 3.5 0.00 0.00 0.00 36 1013.3
20260509001529 70 61 0.9 3.5 0.00 0.00 0.00 35 1013.3
20260509001010 70 55 0.9 4.3 0.00 0.00 0.00 35 1013.3
20260509000508 70 84 1.7 4.3 0.00 0.00 0.00 35 1013.3
20260509000016 71 74 1.7 3.5 0.00 0.00 0.00 34 1013.4